Dewpoint
74 74 73 73 73 73 73 74 74 74 74 74 74 75 75 76 77 77 77 77 77 76 76 75 75 75 75 75 75 74 73 72 71 71 71 70 69 68 68 68 68 67
74 74 74 73 73 74 74 74 74 74 75 75 75 75 76 76 77 76 77 77 76 76 75 74 74 75 75 75 74 73 73 72 71 70 70 70 70 69 67 68 67 68
74 74 73 73 72 73 71 73 74 74 74 74 75 75 75 76 76 77 77 77 76 75 75 74 74 75 75 75 74 73 73 72 71 70 70 70 69 69 69 66 67 68
74 74 73 72 72 72 73 73 74 74 74 74 74 74 74 75 76 76 76 77 76 76 75 74 74 74 75 75 74 73 73 72 71 71 70 71 70 69 69 69 67 68
74 74 73 73 73 74 74 74 72 73 73 73 74 74 75 75 76 75 76 76 76 76 75 74 74 74 75 75 74 73 72 71 71 71 70 70 70 70 69 68 68 67
74 74 74 74 74 74 73 73 73 72 73 72 74 73 74 75 75 74 75 75 75 74 74 74 74 74 74 75 74 74 72 71 70 70 70 70 69 69 68 69 68 67
73 74 74 73 74 74 74 73 73 74 73 73 74 73 74 74 74 75 75 75 74 75 74 75 75 74 75 75 74 73 73 72 71 70 70 70 70 70 68 69 69 68
73 73 73 73 73 73 73 73 73 73 74 74 73 74 74 73 74 74 75 75 74 75 75 76 76 76 74 74 74 73 73 72 71 71 70 70 70 70 69 68 69 69
73 73 73 73 73 72 72 72 72 73 73 73 73 72 74 74 74 74 75 76 75 75 76 76 76 76 75 74 74 73 73 72 71 71 70 70 69 69 69 69 69 69
73 73 72 71 71 72 71 71 71 72 73 73 72 72 73 74 74 74 75 76 75 75 76 76 76 75 75 74 74 73 73 72 72 71 70 70 69 69 69 69 68 68
72 72 72 71 71 71 71 70 70 71 72 72 72 72 72 73 74 75 75 75 75 75 75 75 75 75 75 74 74 73 73 72 72 72 71 70 70 70 69 69 68 68
72 72 71 71 71 70 70 70 70 71 71 72 72 71 72 72 73 74 74 75 75 75 75 75 75 75 75 74 73 73 73 72 72 72 71 71 70 70 69 69 69 68
72 72 71 71 72 72 71 71 70 70 71 71 71 71 71 71 71 73 74 74 75 75 74 75 75 75 75 75 74 73 73 72 71 71 71 70 70 69 69 68 68 68
73 73 72 72 72 73 73 72 71 71 72 72 72 72 71 71 71 72 73 73 74 74 75 75 75 75 75 75 74 74 73 72 72 71 70 70 70 69 68 68 68 67
73 73 73 73 73 74 73 73 72 73 73 73 73 72 71 71 71 71 72 73 73 74 74 74 74 74 74 74 74 74 73 72 72 71 71 70 70 69 69 68 68 67
73 74 74 74 74 74 74 74 73 73 73 73 73 73 73 73 73 72 72 72 73 73 74 74 74 74 70 66 67 73 73 72 72 72 71 71 70 70 69 68 68 67
73 73 73 73 74 74 74 74 74 74 74 74 74 74 73 74 73 72 72 72 72 72 73 73 73 73 65 63 64 66 71 73 72 72 71 71 70 70 69 69 68 68
72 73 73 73 74 74 74 74 74 74 74 74 74 74 74 74 73 73 73 72 72 72 72 73 73 67 62 62 63 63 65 72 72 72 71 71 70 70 70 69 69 68
73 73 73 73 74 74 74 74 74 74 74 74 73 74 74 74 74 73 73 73 73 73 72 72 72 65 62 61 62 62 62 66 71 72 71 70 70 70 70 70 70 69
73 73 73 73 73 74 74 74 74 74 74 74 74 74 74 73 73 74 74 74 73 73 73 72 72 65 61 60 60 60 61 64 71 71 71 71 70 70 70 70 70 70
73 73 73 73 74 74 74 74 73 74 74 73 73 73 73 73 73 73 73 73 73 72 72 72 71 62 60 59 59 59 60 61 71 71 71 71 71 71 71 71 71 70
73 73 73 74 74 73 73 73 73 74 74 74 73 72 72 72 73 73 73 72 73 72 71 72 71 61 59 58 58 58 59 66 70 72 71 71 71 71 71 72 71 70
72 72 73 73 73 73 73 73 73 73 74 74 73 72 72 72 73 72 73 73 72 72 72 71 71 64 58 57 57 57 59 68 70 71 71 71 71 71 71 71 71 70
72 72 73 73 73 73 73 73 73 73 73 74 73 72 71 71 71 72 72 72 72 72 71 71 71 65 56 56 57 56 61 69 70 71 71 70 70 71 71 71 70 68
72 72 72 73 73 73 73 73 73 73 74 74 73 72 72 73 72 72 72 73 71 71 68 70 71 64 55 56 56 56 61 70 71 71 70 70 70 70 71 70 70 68
72 73 73 72 73 73 74 73 74 73 73 73 73 72 72 72 72 72 72 72 72 72 72 71 72 72 63 55 56 55 57 70 71 71 70 70 70 70 70 69 69 69